Notices

What's New in latest Release from April 7th, 2021:

- Updated Glossary, including Speed of Maximum Gust, and Total Hourly Precipitation

- Updated national and regional climate services offices contacts and prices information

- Addition of station inventory lists for 1981-2010, 1971-2000, and 1961-1990 Normals.

If you haven't already, please take our survey and provide feedback about our website: https://eccc.sondage-survey.ca/f/LanguageSelection.aspx?s=442ca660-fcf1-47c0-95a9-59707d6fd709

Hourly Data Report for October 09, 2017

VICTORIA UNIVERSITY CS
BRITISH COLUMBIA

48°27'25.200" N
123°18'16.600" W
60.10 m
1018598
71783
WYJ

Download Data

Hourly Data (October 2017)
Hourly Data Report for October 9, 2017
TIME
LST
Temp Definition
°C
Dew Point Definition
°C
Rel Hum Definition
%
Precip. Amount Definition
mm

Wind Dir Definition
10's deg

Wind Spd Definition
km/h
Visibility Definition
km
Stn Press Definition
kPa
Hmdx Definition


Wind Chill Definition


Weather Definition


00:00 5.6 4.8 95 0.0 0 1   102.00     LegendNANA
01:00 4.9 4.4 97 0.0 17 2   101.99     LegendNANA
02:00 4.9 4.5 97 0.0 19 3   101.96     LegendNANA
03:00 5.0 4.7 98 0.0 28 2   101.93     LegendNANA
04:00 5.2 4.9 98 0.0   0   101.94     LegendNANA
05:00 4.3 4.0 98 0.0 1 1   101.93     LegendNANA
06:00 5.0 4.8 99 0.0 3 1   101.87     LegendNANA
07:00 5.6 5.4 99 0.2 2 1   101.81     LegendNANA
08:00 7.7 7.5 99 0.0 0 1   101.81     LegendNANA
09:00 10.5 9.4 93 0.0 36 2   101.81     LegendNANA
10:00 10.7 8.1 84 0.0 9 4   101.77     LegendNANA
11:00 10.6 8.0 84 0.0 12 3   101.70     LegendNANA
12:00 12.2 8.2 77 0.0 11 3   101.63     LegendNANA
13:00 12.9 7.4 69 0.0 13 3   101.52     LegendNANA
14:00 14.1 7.4 64 0.0 12 3   101.44     LegendNANA
15:00 13.5 7.0 65 0.2 11 3   101.34     LegendNANA
16:00 13.0 6.6 65 0.0 15 2   101.26     LegendNANA
17:00 11.6 7.0 74 0.0 25 3   101.17     LegendNANA
18:00 9.3 6.8 84 0.0 25 2   101.10     LegendNANA
19:00 8.4 6.6 88 0.0 21 4   101.02     LegendNANA
20:00 7.6 6.0 90 0.0 22 2   100.94     LegendNANA
21:00 6.7 5.8 94 0.0 0 1   100.88     LegendNANA
22:00 6.4 5.6 95 0.0 29 2   100.79     LegendNANA
23:00 7.8 7.2 96 0.0 34 5   100.70     LegendNANA

Notes on Data Quality.

Legend

  • E = Estimated
  • M = Missing
  • NA = Not Available*
  • [empty] = Indicates an unobserved value
Date modified: